sat.trackr.live / text

‹ back to catalog

STARLINK-11139 [DTC]

NORAD 60402 · 2024-141E

PAYLOAD ACTIVE UNKNOWN

§ Identity

Operator
Country
US
Launch date
2024-08-10
Launch site
AFETR
Launch vehicle
Mass (kg)
RCS (m²)

Purposes: comms

External: N2YO · Heavens-Above · Gunter

§ Orbital elements

Epoch: 2026-09-21T10:47:18.714624Z

Period
91.74 min
Inclination
53.1624°
Eccentricity
0.0001274
Mean motion
15.69717140 rev/d
Perigee alt
358.8 km
Apogee alt
360.6 km
Semi-major
6,737.8 km
B*
1.0086e-5
RAAN
200.9164°
Arg perigee
55.2078°
Mean anomaly
304.9060°
Rev number
12,249

§ Raw data

STARLINK-11139 [DTC]1 60402U 24141E   26264.44952216  .00000633  00000+0  10086-4 0  99972 60402  53.1624 200.9164 0001274  55.2078 304.9060 15.69717140122499

JSON: /api/v1/satellites/60402 · /tle

For live sub-satellite position, see the globe view (requires WebGL).

§ Visibility from observer

Set your observer location to see the next 7 days of passes ≥ 10°. The values pass through the URL so the page stays shareable.

No JS? Fill the form by hand. The geolocation button needs JavaScript.